Regional Weather Roundup
Issued by NWS Grand Forks, ND

Home | Current Version | Previous Version | Text Only | Print | Product List | Glossary Off
Versions: 1 2 3 4 5 6 7 8 9 10 11 12 13 14 15 16 17 18 19 20 21 22 23 24 25 26 27 28 29 30 31 32 33 34 35 36 37 38 39 40 41 42 43 44 45 46 47 48 49 50

000
ASUS43 KFGF 031331
RWRFGF
PRAIRIE TO PINES  WEATHER ROUNDUP
NATIONAL WEATHER SERVICE EASTERN NORTH DAKOTA/GRAND FORKS ND
800 AM CDT WED JUN 03 2015

 **SATELLITE DATA USED TO AUGMENT SKY COVER AT AUTOMATED STATIONS**
 *****  WEATHER ACROSS EASTERN NORTH DAKOTA  *****

CITY           SKY/WX    TMP DP  RH WIND       PRES   REMARKS
GRAND FORKS    CLOUDY    52  49  89 N16G23    29.80R
GRAND FRKS AFB CLOUDY    52  46  82 N18       29.81S
GRAND FRKS NWS   N/A     52 N/A N/A VRB7        N/A
DEVILS LAKE    CLOUDY    48  39  71 NE15G26   29.88R
FARGO          CLOUDY    62  59  90 NW13      29.76R
WAHPETON ARPT  CLOUDY    61  59  94 NW15      29.78R
$$

 ***** WEATHER ACROSS CENTRAL AND WESTERN NORTH DAKOTA  *****

CITY           SKY/WX    TMP DP  RH WIND       PRES   REMARKS
BISMARCK       CLOUDY    50  42  74 N14       29.96R
MINOT          CLOUDY    50  45  83 NW10      29.98R
JAMESTOWN      CLOUDY    50  48  93 N17       29.85R
MINOT AFB      CLOUDY    50  50 100 N9        29.97R
GARRISON         N/A     51  44  77 NE15G21   29.97R
WILLISTON      SUNNY     52  47  83 NE3       30.03R
DICKINSON      CLOUDY    49  46  90 NE13      29.99R
HETTINGER      CLOUDY    51  49  92 N12       30.00R
$$

 *****  OTHER AIRPORT OBSERVATIONS IN OUR AREA  *****

CITY           SKY/WX    TMP DP  RH WIND       PRES   REMARKS
WALHALLA       FAIR      52  41  66 MISG      29.90R
GRAFTON AIRPOR CLOUDY    52  46  82 N15G23    29.85R
VALLEY CITY AR CLOUDY    54  54 100 N13G22    29.83R FOG
CANDO          CLOUDY    50  41  71 N24G31    29.91S
CAVALIER APRT  CLOUDY    52  41  66 N16G22    29.87R
GWINNER        NOT AVBL
ROLLA          CLOUDY    48  46  93 N17       29.96R
 ***** THE ABOVE OBSERVATIONS ARE NON NWS ARE NOT QUALITY
       CONTROLLED AND MAY MIS-REPORT RAIN FOR SNOW...
$$

  *****  WEATHER ACROSS NORTHERN MINNESOTA  *****

CITY           SKY/WX    TMP DP  RH WIND       PRES   REMARKS
FLAG ISLAND    CLOUDY    57  55  94 NE12      29.84R
WARROAD        FOG       57  54  88 NE9       29.86R VSB 3/4
ROSEAU         CLOUDY    59  54  82 NE12      29.84R
HALLOCK        CLOUDY    54  48  82 N12       29.84R
THF RVR FALLS  CLOUDY    61  57  88 NE10      29.79S
BAUDETTE       CLOUDY    59  57  93 E8        29.82S
WASKISH        PTSUNNY   61  59  94 E6        29.81S
CROOKSTON      CLOUDY    63  61  94 NE5       29.78R
STEPHEN NDAWN    N/A     55  55 100 N9          N/A
GREENBUSH NDAW   N/A     59  57  94 NE13        N/A
$$
  *****  WEATHER ACROSS CENTRAL AND WEST MINNESOTA  *****

CITY           SKY/WX    TMP DP  RH WIND       PRES   REMARKS
FOSSTON        CLOUDY    61  61 100 CALM      29.78R
BEMIDJI        PTSUNNY   60  58  92 E7        29.79R
PARK RAPIDS    CLOUDY    64  57  78 SE12      29.78R
ELBOW LAKE     CLOUDY    64  60  87 S10       29.77R
WADENA         CLOUDY    63  57  82 S9        29.77R
DETROIT LAKES  CLOUDY    64  61  88 S6        29.77R
MOORHEAD       CLOUDY    61  59  94 W10       29.77R
FERGUS FALLS   FOG       61  61 100 W12       29.77R VSB 1/4
MORRIS MN      CLOUDY    64  61  88 S6        29.76S
STAPLES        CLOUDY    63  57  82 S12       29.79R
$$
  *****  WEATHER ELSEWHERE ACROSS MINNESOTA  *****

CITY           SKY/WX    TMP DP  RH WIND       PRES   REMARKS
DULUTH         PTSUNNY   56  51  84 SE15      29.87S
INTRNTL FALLS  CLOUDY    59  57  93 VRB3      29.85R
ELY            CLOUDY    57  55  94 S7        29.88S
CLOQUET        CLOUDY    54  52  94 SE7       29.87S
WHEATON        CLOUDY    61  61 100 W7        29.79R FOG
BRAINERD       CLOUDY    63  57  81 S8        29.81R
HIBBING        CLOUDY    58  56  93 SE6       29.85S
ALEXANDRIA     CLOUDY    64  58  80 S9        29.78S
SAINT CLOUD    PTSUNNY   65  57  75 S9        29.82S
MINNEAPOLIS    CLOUDY    62  57  83 SE8       29.86S
$$

  *****  WEATHER ACROSS SOUTH DAKOTA  *****

CITY           SKY/WX    TMP DP  RH WIND       PRES   REMARKS
SIOUX FALLS    CLOUDY    64  62  93 SW5       29.80S
BROOKINGS      CLOUDY    66  63  88 SW9       29.85R THUNDER
WATERTOWN      CLOUDY    65  62  90 W12       29.80F
HURON          LGT RAIN  63  62  97 NW7       29.83S FOG
SISSETON         N/A     66  63  90 NW7       29.77R
ABERDEEN       CLOUDY    63  58  83 W7        29.84R
MITCHELL       LGT RAIN  67  62  84 N12       29.83R
PIERRE         CLOUDY    59  55  87 N17       29.90R
MOBRIDGE       CLOUDY    59  55  87 NW20G25   29.89R
RAPID CITY     SUNNY     56  52  86 N15       29.98R
$$

  *****  SOME WEATHER IN NEARBY STATES *****

CITY           SKY/WX    TMP DP  RH WIND       PRES   REMARKS
GLASGOW MT     CLOUDY    55  52  89 SE10      30.00R
GREAT FALLS MT CLOUDY    50  48  93 SW5       29.98R
CHEYENNE WY    CLOUDY    51  47  86 N8        30.10R
SCOTTSBLUFF NE MOSUNNY   57  52  83 W5        30.02R
OMAHA NE       CLOUDY    66  63  90 SW10      29.90R
DES MOINES IA  LGT RAIN  63  57  81 SE9       29.93F
DAVENPORT IA   SUNNY     64  55  72 S8        30.02F
CHICAGO IL     PTSUNNY   59  51  75 S6        30.08S
EAU CLAIRE WI  CLOUDY    62  52  69 SE14      29.93F
LA CROSSE WI   SUNNY     65  54  67 S12       29.96F
$$

  *****  SOME NATIONAL WEATHER *****

CITY           SKY/WX    TMP DP  RH WIND       PRES   REMARKS
LA GUARDIA NY  PTSUNNY   57  48  72 E9        30.23R
RALEIGH NC     CLOUDY    63  61  93 NE6       30.07R FOG
ATLANTA GA     PTSUNNY   69  63  81 E7        30.00R
NEW ORLEANS LA MOSUNNY   79  68  69 NE9       29.94R
OKLAHOMA CITY  MOSUNNY   71  63  75 S14G21    29.92R
ALBUQUERQUE NM SUNNY     61  25  25 E6        30.09R
SALT LAKE CITY MOCLDY    60  51  72 E3        29.91R
LOS ANGELES CA CLOUDY    61  56  83 E3        29.93S
BOISE ID       CLOUDY    52  48  86 NW5       29.99R
SEATTLE WA     CLOUDY    53  49  86 S5        30.07R
$$

*** WEATHER ACROSS MANITOBA...SASKATCHEWAN AND ONTARIO ***
                ***ONTARIO***

CITY           SKY/WX    TMP DP  RH WIND       PRES   REMARKS
GERALDTON      LGT RAIN  48  48 100 S5        29.92S
THUNDER BAY    LGT RAIN  48  45  87 NE8       29.92S
SIOUX LOOKOUT  PTSUNNY   57  57 100 VRB2      29.88R
TORONTO        MOSUNNY   59  45  58 SE7       30.25R
BIG TROUT LK   SUNNY     48  36  61 W10G18    29.89S
PICKLE LAKE    PTSUNNY   55  37  50 N5        29.91R
DRYDEN         CLOUDY    57  55  94 E8        29.88R
KENORA         CLOUDY    57  55  94 NE9       29.88R
$$
                *** MANITOBA***

CITY           SKY/WX    TMP DP  RH WIND       PRES   REMARKS
BRANDON        LGT RAIN  52  45  76 N8        29.99S
DAUPHIN        CLOUDY    54  41  62 N8        30.03R
ISLAND LAKE    MOSUNNY   48  36  61 W8        29.99R
PILOT MOUND      N/A     50  41  71 N14         N/A
THE PAS        MOSUNNY   52  36  54 VRB2      30.08R
THOMPSON       MOSUNNY   45  32  61 N10       30.03R
WINNIPEG       CLOUDY    55  37  50 N21G28    29.93R
LYNN LAKE      SUNNY     41  32  70 N9        30.08R
CHURCHILL      CLOUDY    34  34 100 N20G26    29.92R WCI  22
GILLAM         CLOUDY    43  36  75 N20       29.96R
$$
                ***SASKATCHEWAN***

CITY           SKY/WX    TMP DP  RH WIND       PRES   REMARKS
ESTEVAN        MOSUNNY   50  41  71 E7        30.04R
KINDERSLEY     CLOUDY    52  34  50 SE13      29.99S
LLOYDMINSTER   CLOUDY    54  36  50 SE10      30.00R
PRINCE ALBERT  PTSUNNY   50  39  66 E5        30.06R
REGINA         CLOUDY    54  41  62 SE10      30.03
YORKTON        SUNNY     52  43  71 CALM      30.05R
N. BATTLEFORD  MOSUNNY   50  39  66 SE7       30.05R
LA RONGE       PTSUNNY   50  37  62 SE5       30.08R
SASKATOON      PTSUNNY   52  39  62 E3        30.04S
SWIFT CURRENT  CLOUDY    50  37  62 SE5       29.99S
$$
NOTE: THESE ARE AUTOMATED STATIONS WITH LIMITED QUALITY CONTROL
      "FAIR" INDICATES FEW OR NO CLOUDS BELOW 12,000 FEET WITH NO
      SIGNIFICANT WEATHER AND/OR OBSTRUCTIONS TO VISIBILITY.
      SKY/WX - SKY CONDITION AND SIGNIFICANT WEATHER.
      TMP - AIR TEMPERATURE.    DP   - DEWPOINT TEMPERATURE.
      RH  - RELATIVE HUMIDITY.  PRES - PRESSURE.
      HX  - HEAT INDEX.         WCI  - WIND CHILL INDEX.
$



USA.gov is the U.S. government's official web portal to all federal, state and local government web resources and services.